EW5830 Weather Reports


time (UTC)temp
C
wind
direction
speed
KPH
gust
KPH
rain 1hr
cm
rain 24hr
cm
rain mn
cm
humidity
%
barometer
mb
20260503213003 18 217 8.0 19.3 0.00 0.00 0.00 66 1013.4
20260503212503 18 220 9.7 24.1 0.00 0.00 0.00 65 1013.3
20260503212003 18 227 9.7 24.1 0.00 0.00 0.00 64 1013.4
20260503211503 18 228 8.0 22.5 0.00 0.00 0.00 65 1013.3
20260503211024 18 221 9.7 30.6 0.00 0.00 0.00 65 1013.3
20260503210503 18 225 11.3 30.6 0.00 0.00 0.00 63 1013.3
20260503210003 19 223 11.3 24.1 0.00 0.00 0.00 64 1013.3
20260503205524 19 227 11.3 24.1 0.00 0.00 0.00 63 1013.2
20260503205003 18 242 11.3 22.5 0.00 0.00 0.00 65 1013.3
20260503204503 18 239 11.3 20.9 0.00 0.00 0.00 64 1013.3
20260503204003 18 232 9.7 20.9 0.00 0.00 0.00 67 1013.3
20260503203503 17 226 9.7 20.9 0.00 0.00 0.00 67 1013.4
20260503203003 17 218 9.7 20.9 0.00 0.00 0.00 66 1013.4
20260503202503 17 215 8.0 17.7 0.00 0.00 0.00 68 1013.5
20260503202003 17 219 9.7 20.9 0.00 0.00 0.00 67 1013.5
20260503201503 16 228 9.7 20.9 0.00 0.00 0.00 68 1013.6
20260503201003 16 223 9.7 19.3 0.00 0.00 0.00 68 1013.5
20260503200524 17 227 8.0 20.9 0.00 0.00 0.00 68 1013.6
20260503200003 17 239 9.7 20.9 0.00 0.00 0.00 69 1013.6
20260503195503 17 227 8.0 19.3 0.00 0.00 0.00 68 1013.6
20260503195003 16 227 8.0 16.1 0.00 0.00 0.00 69 1013.6
20260503194503 16 241 9.7 20.9 0.00 0.00 0.00 69 1013.6
20260503194003 16 246 9.7 22.5 0.00 0.00 0.00 68 1013.7
20260503193503 17 245 8.0 22.5 0.00 0.00 0.00 69 1013.6
20260503193003 17 240 8.0 20.9 0.00 0.00 0.00 69 1013.7
20260503192504 16 243 9.7 20.9 0.00 0.00 0.00 69 1013.7
20260503192024 16 245 9.7 19.3 0.00 0.00 0.00 70 1013.6
20260503191503 16 243 9.7 19.3 0.00 0.00 0.00 69 1013.7
20260503191003 17 237 9.7 22.5 0.00 0.00 0.00 66 1013.7
20260503190503 18 223 8.0 22.5 0.00 0.00 0.00 65 1013.7
20260503190003 18 215 8.0 16.1 0.00 0.00 0.00 65 1013.7
20260503185503 18 219 8.0 16.1 0.00 0.00 0.00 65 1013.6
20260503185003 18 211 8.0 16.1 0.00 0.00 0.00 67 1013.6
20260503184503 17 212 6.4 16.1 0.00 0.00 0.00 69 1013.6
20260503184024 17 225 6.4 16.1 0.00 0.00 0.00 67 1013.7
20260503183524 17 210 6.4 17.7 0.00 0.00 0.00 67 1013.6
20260503183003 17 204 6.4 19.3 0.00 0.00 0.00 69 1013.5
20260503182503 17 222 8.0 19.3 0.00 0.00 0.00 70 1013.6
20260503182003 16 237 8.0 19.3 0.00 0.00 0.00 69 1013.6
20260503181504 17 238 6.4 19.3 0.00 0.00 0.00 69 1013.6
20260503181024 17 233 6.4 14.5 0.00 0.00 0.00 70 1013.6
20260503180503 16 228 8.0 20.9 0.00 0.00 0.00 72 1013.6
20260503180003 16 231 8.0 20.9 0.00 0.00 0.00 69 1013.5
20260503175503 17 221 8.0 19.3 0.00 0.00 0.00 68 1013.4
20260503175003 17 222 9.7 19.3 0.00 0.00 0.00 68 1013.4
20260503174503 17 235 8.0 19.3 0.00 0.00 0.00 69 1013.5
20260503174003 16 228 8.0 19.3 0.00 0.00 0.00 70 1013.5
20260503173503 16 234 8.0 19.3 0.00 0.00 0.00 72 1013.5
20260503173003 16 237 8.0 16.1 0.00 0.00 0.00 71 1013.6
20260503172503 15 229 6.4 16.1 0.00 0.00 0.00 75 1013.5
20260503172003 15 226 6.4 16.1 0.00 0.00 0.00 74 1013.5
20260503171503 15 216 6.4 16.1 0.00 0.00 0.00 75 1013.5
20260503171003 15 199 4.8 16.1 0.00 0.00 0.00 75 1013.5
20260503170503 15 201 4.8 16.1 0.00 0.00 0.00 76 1013.6
20260503151003 12 232 3.2 9.7 0.00 0.00 0.00 85 1012.9
20260503150503 12 242 3.2 9.7 0.00 0.00 0.00 85 1012.9
20260503131003 11 246 3.2 12.9 0.00 0.00 0.00 85 1011.4
20260503130524 11 240 4.8 12.9 0.00 0.00 0.00 85 1011.4
20260503110503 11 245 3.2 11.3 0.00 0.00 0.00 85 1011.5
20260503081503 11 250 4.8 11.3 0.00 0.00 0.00 84 1012.3
20260503081003 11 251 4.8 9.7 0.00 0.00 0.00 84 1012.3
20260503080503 11 244 4.8 12.9 0.00 0.00 0.00 84 1012.4
20260503072524 11 252 3.2 11.3 0.00 0.00 0.00 84 1012.3
20260503072003 11 250 3.2 11.3 0.00 0.00 0.00 84 1012.3
20260503071503 11 249 4.8 11.3 0.00 0.00 0.00 84 1012.3
20260503071003 12 253 3.2 11.3 0.00 0.00 0.00 84 1012.3
20260503070503 12 257 3.2 11.3 0.00 0.00 0.00 84 1012.3
20260503055003 12 243 6.4 17.7 0.00 0.00 0.00 84 1012.6
20260503054503 11 248 4.8 14.5 0.00 0.00 0.00 84 1012.7
20260503054003 12 246 6.4 16.1 0.00 0.00 0.00 84 1012.7
20260503053503 12 244 6.4 16.1 0.00 0.00 0.00 84 1012.8
20260503053024 12 240 8.0 19.3 0.00 0.00 0.00 84 1012.8
20260503052524 12 242 9.7 19.3 0.00 0.00 0.00 84 1012.7
20260503052003 12 245 8.0 19.3 0.00 0.00 0.00 84 1012.8
20260503051503 12 246 9.7 24.1 0.00 0.00 0.00 84 1012.8
20260503051003 12 246 9.7 24.1 0.00 0.00 0.00 84 1012.7
20260503050503 12 243 9.7 19.3 0.00 0.00 0.00 84 1012.7
20260503050003 12 242 8.0 19.3 0.00 0.00 0.00 84 1012.8
20260503045503 12 240 8.0 16.1 0.00 0.00 0.00 84 1012.7
20260503045003 12 239 9.7 17.7 0.00 0.00 0.00 84 1012.8
20260503044503 12 242 9.7 24.1 0.00 0.00 0.00 84 1012.8
20260503044024 12 245 8.0 24.1 0.00 0.00 0.00 84 1012.7
20260503043503 12 244 8.0 19.3 0.00 0.00 0.00 84 1012.6
20260503043003 12 241 8.0 17.7 0.00 0.00 0.00 83 1012.6
20260503042524 12 241 6.4 17.7 0.00 0.00 0.00 83 1012.7
20260503042024 12 239 8.0 17.7 0.00 0.00 0.00 83 1012.6
20260503041503 12 240 8.0 20.9 0.00 0.00 0.00 83 1012.6
20260503041003 12 237 6.4 19.3 0.00 0.00 0.00 83 1012.5
20260503040524 12 239 4.8 19.3 0.00 0.00 0.00 83 1012.6
20260503040003 12 244 6.4 19.3 0.00 0.00 0.00 83 1012.5
20260503035503 12 243 6.4 17.7 0.00 0.00 0.00 83 1012.5
20260503035003 12 248 6.4 17.7 0.00 0.00 0.00 83 1012.5
20260503034503 12 245 6.4 14.5 0.00 0.00 0.00 83 1012.5
20260503034024 12 238 8.0 19.3 0.00 0.00 0.00 83 1012.4
20260503033503 12 238 6.4 19.3 0.00 0.00 0.00 83 1012.2
20260503033003 12 242 8.0 19.3 0.00 0.00 0.00 83 1012.2
20260503032503 12 247 8.0 19.3 0.00 0.00 0.00 83 1012.2
20260503032003 12 246 8.0 20.9 0.00 0.00 0.00 83 1012.0
20260503031503 12 242 8.0 20.9 0.00 0.00 0.00 83 1011.9
20260503031024 12 241 6.4 20.9 0.00 0.00 0.00 83 1011.8
20260503030503 12 240 8.0 17.7 0.00 0.00 0.00 83 1011.8
20260503030024 12 238 9.7 24.1 0.00 0.00 0.00 83 1011.8
20260503025524 12 240 9.7 24.1 0.00 0.00 0.00 83 1011.7
20260503025003 12 237 9.7 20.9 0.00 0.00 0.00 83 1011.7
20260503024503 12 235 9.7 20.9 0.00 0.00 0.00 83 1011.7
20260503024024 12 238 9.7 20.9 0.00 0.00 0.00 83 1011.7
20260503023503 12 240 8.0 20.9 0.00 0.00 0.00 83 1011.7
20260503023003 12 246 9.7 20.9 0.00 0.00 0.00 83 1011.8
20260503022503 12 251 11.3 22.5 0.00 0.00 0.00 82 1011.8
20260503022003 12 252 9.7 22.5 0.00 0.00 0.00 82 1011.7
20260503021503 12 252 9.7 19.3 0.00 0.00 0.00 82 1011.7
20260503021003 12 249 8.0 17.7 0.00 0.00 0.00 82 1011.8
20260503020503 12 245 8.0 17.7 0.00 0.00 0.00 82 1011.9
20260503020024 12 250 8.0 19.3 0.00 0.00 0.00 81 1011.8
20260503015503 12 253 9.7 25.7 0.00 0.00 0.00 81 1011.9
20260503015003 12 244 11.3 25.7 0.00 0.00 0.00 81 1011.9
20260503014503 12 236 9.7 17.7 0.00 0.00 0.00 81 1011.9
20260503014003 12 245 9.7 17.7 0.00 0.00 0.00 80 1012.0
20260503013503 12 244 9.7 17.7 0.00 0.00 0.00 80 1012.0
20260503013003 13 242 8.0 17.7 0.00 0.00 0.00 80 1012.1
20260503012503 13 249 9.7 22.5 0.00 0.00 0.00 80 1012.0
20260503012003 13 246 8.0 22.5 0.00 0.00 0.00 79 1012.1
20260503011503 13 251 6.4 14.5 0.00 0.00 0.00 79 1012.1
20260503011024 13 253 9.7 22.5 0.00 0.00 0.00 79 1012.1
20260503010503 13 250 11.3 22.5 0.00 0.00 0.00 79 1012.1
20260503010003 13 242 11.3 22.5 0.00 0.00 0.00 78 1012.1
20260503005503 13 237 9.7 22.5 0.00 0.00 0.00 78 1012.1
20260503005003 13 237 8.0 20.9 0.00 0.00 0.00 78 1012.1
20260503004503 13 242 8.0 19.3 0.00 0.00 0.00 78 1012.1
20260503004024 13 246 8.0 19.3 0.00 0.00 0.00 77 1012.2
20260503003503 13 249 8.0 20.9 0.00 0.00 0.00 78 1012.2
20260503003003 13 249 9.7 20.9 0.00 0.00 0.00 77 1012.2
20260503002503 13 246 9.7 19.3 0.00 0.00 0.00 77 1012.2
20260503002003 13 242 8.0 22.5 0.00 0.00 0.00 77 1012.2
20260503001503 14 244 8.0 22.5 0.00 0.00 0.00 77 1012.3
20260503001003 13 245 11.3 24.1 0.00 0.00 0.00 76 1012.3
20260503000503 13 244 11.3 24.1 0.00 0.00 0.00 75 1012.4
20260503000003 14 249 9.7 24.1 0.00 0.00 0.00 76 1012.5
20260502235503 14 249 9.7 24.1 0.00 0.00 0.00 76 1012.5
20260502235003 14 237 8.0 22.5 0.00 0.00 0.00 75 1012.3
20260502234502 14 235 8.0 22.5 0.00 0.00 0.00 74 1012.5
20260502234002 15 244 8.0 20.9 0.00 0.00 0.00 75 1012.5
20260502233503 14 241 9.7 20.9 0.00 0.00 0.00 75 1012.6
20260502233003 14 240 8.0 17.7 0.00 0.00 0.00 76 1012.7
20260502232503 14 245 9.7 20.9 0.00 0.00 0.00 75 1012.7
20260502232003 14 242 11.3 20.9 0.00 0.00 0.00 74 1012.8
20260502231503 15 235 9.7 20.9 0.00 0.00 0.00 74 1012.9
20260502231003 15 238 8.0 20.9 0.00 0.00 0.00 74 1012.8
20260502230524 15 248 9.7 22.5 0.00 0.00 0.00 74 1012.9
20260502230002 15 243 9.7 22.5 0.00 0.00 0.00 72 1013.0
20260502225503 15 231 8.0 24.1 0.00 0.00 0.00 73 1013.0
20260502225003 15 240 9.7 24.1 0.00 0.00 0.00 73 1013.1
20260502224502 15 245 9.7 19.3 0.00 0.00 0.00 75 1013.2
20260502224023 15 243 9.7 24.1 0.00 0.00 0.00 74 1013.2
20260502222503 15 233 9.7 20.9 0.00 0.00 0.00 74 1013.5
20260502222003 15 224 8.0 20.9 0.00 0.00 0.00 74 1013.6
20260502221503 15 221 8.0 19.3 0.00 0.00 0.00 74 1013.6
20260502221024 15 225 8.0 19.3 0.00 0.00 0.00 75 1013.7
20260502220503 15 224 8.0 19.3 0.00 0.00 0.00 74 1013.7
20260502220024 15 224 8.0 19.3 0.00 0.00 0.00 75 1013.7
20260502215503 15 221 9.7 17.7 0.00 0.00 0.00 75 1013.8
20260502215024 14 209 9.7 19.3 0.00 0.00 0.00 75 1013.9
20260502214503 14 221 9.7 19.3 0.00 0.00 0.00 75 1013.8
20260502214003 14 240 8.0 22.5 0.00 0.00 0.00 74 1013.9
20260502213503 14 248 9.7 22.5 0.00 0.00 0.00 74 1013.9